Regional Weather Roundup
Issued by NWS

Home | Current Version | Previous Version | Text Only | Print | Product List | Glossary On
Versions: 1 2 3 4 5 6 7 8 9 10 11 12 13 14 15 16 17 18 19 20 21 22 23 24 25 26 27 28 29 30 31 32 33 34 35 36 37 38 39 40 41 42 43 44 45 46 47 48 49 50
000
ASUS43 KLMK 260102
RWRKY
KENTUCKY REGIONAL WEATHER ROUNDUP
NATIONAL WEATHER SERVICE LOUISVILLE KY
900 PM EDT SAT MAR 25 2017

NOTE "FAIR" INDICATES FEW OR NO CLOUDS BELOW 12,000 FEET
WITH NO SIGNIFICANT WEATHER AND/OR OBSTRUCTIONS TO VISIBILITY.

KYZ001>023-026-027-061>063-070>075-260200-
WESTERN AND SOUTH CENTRAL KENTUCKY

CITY           SKY/WX    TMP DP  RH WIND       PRES   REMARKS
PADUCAH        CLOUDY    64  55  72 S9        29.89R
HENDERSON      CLOUDY    64  52  63 S6        29.91R
OWENSBORO      CLOUDY    65  57  75 SE12      29.94S
HOPKINSVILLE   CLOUDY    67  53  59 S8        29.94R
BOWLING GREEN  PTCLDY    65  54  67 S12       29.98S
GLASGOW        NOT AVBL
$$

KYZ024-025-028>034-038-045-046-053-260200-
NORTH CENTRAL KENTUCKY

CITY           SKY/WX    TMP DP  RH WIND       PRES   REMARKS
LOUISVILLE/SDF CLOUDY    67  55  65 SW3       29.99R
LOUISVILLE/LOU CLOUDY    71  52  50 S9        30.00R
FORT KNOX      CLOUDY    64  56  75 SE15      29.98R
$$

KYZ035>037-039>044-047>052-055>060-089>105-260200-
NORTHEAST KENTUCKY

CITY           SKY/WX    TMP DP  RH WIND       PRES   REMARKS
LEXINGTON      PTCLDY    69  48  47 SE6       30.03S
COVINGTON      CLOUDY    66  49  54 SE7       30.02R
FRANKFORT      CLOUDY    70  48  45 SE6       30.00S
$$

KYZ054-064>069-076>088-106>120-260200-
SOUTHEAST KENTUCKY

CITY           SKY/WX    TMP DP  RH WIND       PRES   REMARKS
JACKSON        MOCLDY    70  46  42 CALM      30.08R
LONDON         CLEAR     65  45  48 SE5       30.05F
SOMERSET       NOT AVBL
MIDDLESBORO    MOCLDY    65  49  57 CALM      30.09R
MONTICELLO     CLOUDY    66  54  65 W18G26    30.08R
$$




USA.gov is the U.S. government's official web portal to all federal, state and local government web resources and services.